| time (UTC) | temp F | wind direction | speed knots | gust knots | rain 1hr in | rain 24hr in | rain mn in | humidity % | barometer mb |
| 20260906122029 | 69 | 0 | 0.0 | 1.7 | 0.00 | 0.28 | 0.00 | 98 | 1014.0 |
| 20260906121548 | 69 | 0 | 0.0 | 1.7 | 0.00 | 0.28 | 0.00 | 98 | 1014.0 |
| 20260906121028 | 69 | 216 | 0.0 | 1.7 | 0.00 | 0.28 | 0.00 | 98 | 1014.1 |
| 20260906120528 | 69 | 0 | 0.0 | 0.0 | 0.00 | 0.28 | 0.00 | 98 | 1014.1 |
| 20260906120050 | 69 | 0 | 0.0 | 1.7 | 0.00 | 0.28 | 0.00 | 98 | 1014.0 |
| 20260906115528 | 69 | 0 | 0.0 | 1.7 | 0.00 | 0.28 | 0.00 | 97 | 1013.9 |
| 20260906115028 | 69 | 0 | 0.0 | 1.7 | 0.00 | 0.28 | 0.00 | 97 | 1013.9 |
| 20260906114551 | 69 | 0 | 0.0 | 1.7 | 0.00 | 0.28 | 0.00 | 97 | 1013.8 |
| 20260906114031 | 69 | 0 | 0.0 | 1.7 | 0.00 | 0.28 | 0.00 | 97 | 1013.7 |
| 20260906113525 | 69 | 165 | 0.0 | 0.0 | 0.00 | 0.28 | 0.00 | 97 | 1013.7 |
| 20260906113051 | 69 | 0 | 0.0 | 0.0 | 0.00 | 0.28 | 0.00 | 97 | 1013.7 |
| 20260906112528 | 69 | 0 | 0.0 | 0.0 | 0.00 | 0.28 | 0.00 | 97 | 1013.5 |
| 20260906112029 | 69 | 0 | 0.0 | 0.0 | 0.00 | 0.28 | 0.00 | 97 | 1013.3 |
| 20260906111548 | 70 | 0 | 0.0 | 0.9 | 0.00 | 0.28 | 0.00 | 97 | 1013.4 |
| 20260906111028 | 70 | 0 | 0.0 | 0.9 | 0.00 | 0.28 | 0.00 | 97 | 1013.2 |
| 20260906110530 | 70 | 165 | 0.0 | 0.9 | 0.00 | 0.28 | 0.00 | 97 | 1013.1 |
| 20260906110050 | 70 | 0 | 0.0 | 0.9 | 0.00 | 0.28 | 0.00 | 97 | 1013.1 |
| 20260906105528 | 70 | 0 | 0.0 | 0.0 | 0.00 | 0.28 | 0.00 | 97 | 1013.0 |
| 20260906105027 | 70 | 0 | 0.0 | 0.0 | 0.00 | 0.28 | 0.00 | 97 | 1013.1 |
| 20260906104552 | 70 | 0 | 0.0 | 0.0 | 0.00 | 0.28 | 0.00 | 97 | 1013.0 |
| 20260906104028 | 70 | 0 | 0.0 | 0.0 | 0.00 | 0.28 | 0.00 | 97 | 1013.1 |
| 20260906103528 | 70 | 0 | 0.0 | 0.9 | 0.00 | 0.28 | 0.00 | 97 | 1013.0 |
| 20260906103050 | 70 | 0 | 0.0 | 1.7 | 0.00 | 0.28 | 0.00 | 97 | 1013.0 |
| 20260906102528 | 70 | 0 | 0.0 | 1.7 | 0.00 | 0.28 | 0.00 | 97 | 1013.0 |
| 20260906102027 | 70 | 165 | 0.9 | 1.7 | 0.00 | 0.28 | 0.00 | 97 | 1012.9 |
| 20260906101547 | 70 | 0 | 0.0 | 0.0 | 0.00 | 0.28 | 0.00 | 97 | 1013.0 |
| 20260906101030 | 70 | 0 | 0.0 | 0.9 | 0.00 | 0.28 | 0.00 | 97 | 1013.0 |
| 20260906100526 | 70 | 0 | 0.0 | 0.9 | 0.00 | 0.28 | 0.00 | 97 | 1013.1 |
| 20260906100046 | 70 | 0 | 0.0 | 1.7 | 0.00 | 0.28 | 0.00 | 96 | 1013.2 |
| 20260906095526 | 70 | 0 | 0.0 | 1.7 | 0.00 | 0.28 | 0.00 | 96 | 1013.2 |
| 20260906095027 | 70 | 165 | 0.9 | 3.5 | 0.00 | 0.28 | 0.00 | 96 | 1013.2 |
| 20260906094552 | 70 | 165 | 0.9 | 3.5 | 0.00 | 0.28 | 0.00 | 96 | 1013.2 |
| 20260906094028 | 70 | 0 | 0.0 | 1.7 | 0.00 | 0.28 | 0.00 | 96 | 1013.5 |
| 20260906093528 | 70 | 175 | 0.9 | 1.7 | 0.00 | 0.28 | 0.00 | 96 | 1013.5 |
| 20260906093058 | 70 | 175 | 0.9 | 1.7 | 0.00 | 0.28 | 0.00 | 96 | 1013.5 |
| 20260906092527 | 71 | 151 | 0.0 | 2.6 | 0.00 | 0.28 | 0.00 | 95 | 1013.5 |
| 20260906092030 | 71 | 0 | 0.0 | 2.6 | 0.00 | 0.28 | 0.00 | 95 | 1013.5 |
| 20260906091557 | 71 | 331 | 0.0 | 2.6 | 0.00 | 0.28 | 0.00 | 96 | 1013.4 |
| 20260906091028 | 71 | 286 | 0.0 | 1.7 | 0.00 | 0.28 | 0.00 | 96 | 1013.4 |
| 20260906090527 | 71 | 0 | 0.0 | 1.7 | 0.00 | 0.28 | 0.00 | 96 | 1013.6 |
| 20260906090052 | 71 | 0 | 0.9 | 1.7 | 0.00 | 0.28 | 0.00 | 96 | 1013.6 |
| 20260906085528 | 71 | 340 | 0.0 | 2.6 | 0.00 | 0.28 | 0.00 | 96 | 1013.6 |
| 20260906085028 | 71 | 340 | 0.0 | 2.6 | 0.00 | 0.28 | 0.00 | 95 | 1013.8 |
| 20260906084549 | 71 | 340 | 0.0 | 1.7 | 0.00 | 0.28 | 0.00 | 95 | 1013.8 |
| 20260906084031 | 71 | 340 | 0.0 | 1.7 | 0.00 | 0.28 | 0.00 | 95 | 1013.7 |
| 20260906083530 | 71 | 340 | 0.0 | 1.7 | 0.00 | 0.28 | 0.00 | 95 | 1013.7 |
| 20260906083049 | 71 | 25 | 0.0 | 1.7 | 0.00 | 0.28 | 0.00 | 96 | 1013.8 |
| 20260906082527 | 71 | 0 | 0.0 | 1.7 | 0.00 | 0.28 | 0.00 | 96 | 1013.8 |
| 20260906082029 | 71 | 0 | 0.0 | 2.6 | 0.00 | 0.28 | 0.00 | 95 | 1013.9 |
| 20260906081552 | 71 | 0 | 0.0 | 2.6 | 0.00 | 0.28 | 0.00 | 95 | 1013.7 |
| 20260906081031 | 71 | 38 | 0.0 | 1.7 | 0.00 | 0.28 | 0.00 | 95 | 1013.8 |
| 20260906080530 | 71 | 0 | 0.0 | 2.6 | 0.00 | 0.28 | 0.00 | 95 | 1013.9 |
| 20260906080054 | 71 | 317 | 0.0 | 2.6 | 0.00 | 0.28 | 0.00 | 95 | 1013.8 |
| 20260906075530 | 71 | 331 | 0.9 | 2.6 | 0.00 | 0.28 | 0.00 | 95 | 1013.9 |
| 20260906075028 | 71 | 324 | 0.0 | 2.6 | 0.00 | 0.28 | 0.00 | 95 | 1013.9 |
| 20260906074550 | 71 | 323 | 0.0 | 2.6 | 0.00 | 0.28 | 0.00 | 95 | 1013.9 |
| 20260906074033 | 71 | 327 | 0.9 | 2.6 | 0.00 | 0.28 | 0.00 | 96 | 1013.8 |
| 20260906073527 | 71 | 53 | 0.9 | 2.6 | 0.00 | 0.28 | 0.00 | 95 | 1013.4 |
| 20260906073048 | 71 | 0 | 0.9 | 3.5 | 0.00 | 0.28 | 0.00 | 95 | 1012.7 |
| 20260906072529 | 71 | 221 | 0.9 | 3.5 | 0.00 | 0.28 | 0.00 | 95 | 1012.5 |
| 20260906072030 | 71 | 197 | 1.7 | 3.5 | 0.00 | 0.28 | 0.00 | 96 | 1012.5 |
| 20260906071558 | 71 | 210 | 0.9 | 2.6 | 0.00 | 0.28 | 0.00 | 96 | 1012.8 |
| 20260906071028 | 71 | 222 | 0.0 | 1.7 | 0.00 | 0.28 | 0.00 | 96 | 1013.1 |
| 20260906070532 | 71 | 313 | 0.0 | 1.7 | 0.00 | 0.28 | 0.00 | 96 | 1013.3 |
| 20260906070055 | 70 | 0 | 0.0 | 1.7 | 0.00 | 0.28 | 0.00 | 97 | 1013.5 |
| 20260906065531 | 70 | 313 | 0.0 | 4.3 | 0.00 | 0.28 | 0.00 | 97 | 1013.8 |
| 20260906065026 | 70 | 0 | 0.9 | 4.3 | 0.00 | 0.28 | 0.00 | 98 | 1014.0 |
| 20260906064549 | 70 | 129 | 0.9 | 3.5 | 0.00 | 0.28 | 0.00 | 98 | 1014.0 |
| 20260906064029 | 69 | 275 | 1.7 | 5.2 | 0.00 | 0.28 | 0.00 | 98 | 1014.1 |
| 20260906063527 | 69 | 88 | 0.0 | 5.2 | 0.00 | 0.28 | 0.00 | 98 | 1014.4 |
| 20260906063049 | 70 | 148 | 1.7 | 5.2 | 0.00 | 0.28 | 0.00 | 98 | 1014.7 |
| 20260906062528 | 70 | 78 | 1.7 | 5.2 | 0.00 | 0.28 | 0.00 | 98 | 1014.5 |
| 20260906062028 | 70 | 182 | 1.7 | 5.2 | 0.00 | 0.28 | 0.00 | 98 | 1014.4 |
| 20260906061558 | 70 | 153 | 1.7 | 4.3 | 0.00 | 0.28 | 0.00 | 98 | 1014.4 |
| 20260906061027 | 70 | 12 | 0.0 | 1.7 | 0.00 | 0.28 | 0.00 | 98 | 1014.1 |
| 20260906060528 | 69 | 0 | 0.0 | 1.7 | 0.00 | 0.28 | 0.00 | 98 | 1013.7 |
| 20260906060046 | 70 | 0 | 0.0 | 0.0 | 0.00 | 0.28 | 0.00 | 98 | 1013.6 |
| 20260906055528 | 70 | 0 | 0.0 | 0.0 | 0.00 | 0.28 | 0.00 | 98 | 1013.5 |
| 20260906055027 | 69 | 0 | 0.0 | 0.0 | 0.00 | 0.28 | 0.00 | 98 | 1013.5 |
| 20260906054554 | 69 | 0 | 0.0 | 0.0 | 0.00 | 0.28 | 0.00 | 98 | 1013.5 |
| 20260906054028 | 69 | 0 | 0.0 | 0.0 | 0.00 | 0.28 | 0.00 | 98 | 1013.5 |
| 20260906053528 | 70 | 0 | 0.0 | 0.9 | 0.00 | 0.28 | 0.00 | 98 | 1013.4 |
| 20260906053048 | 70 | 0 | 0.0 | 0.9 | 0.00 | 0.28 | 0.00 | 98 | 1013.4 |
| 20260906052528 | 70 | 0 | 0.0 | 0.9 | 0.00 | 0.28 | 0.00 | 98 | 1013.4 |
| 20260906052029 | 70 | 0 | 0.0 | 0.0 | 0.00 | 0.28 | 0.00 | 97 | 1013.4 |
| 20260906051552 | 70 | 0 | 0.0 | 0.0 | 0.00 | 0.28 | 0.00 | 98 | 1013.5 |
| 20260906051028 | 70 | 0 | 0.0 | 0.0 | 0.00 | 0.28 | 0.00 | 98 | 1013.5 |
| 20260906050532 | 70 | 0 | 0.0 | 0.0 | 0.00 | 0.28 | 0.00 | 97 | 1013.4 |
| 20260906050114 | 70 | 0 | 0.0 | 0.0 | 0.00 | 0.28 | 0.00 | 98 | 1013.5 |
| 20260906045528 | 70 | 0 | 0.0 | 0.0 | 0.00 | 0.28 | 0.28 | 98 | 1013.6 |
| 20260906045029 | 70 | 0 | 0.0 | 0.0 | 0.00 | 0.28 | 0.28 | 97 | 1013.7 |
| 20260906044553 | 70 | 0 | 0.0 | 0.0 | 0.00 | 0.28 | 0.28 | 98 | 1013.8 |
| 20260906044033 | 70 | 0 | 0.0 | 0.0 | 0.00 | 0.28 | 0.28 | 98 | 1013.9 |
| 20260906043528 | 70 | 0 | 0.0 | 0.0 | 0.00 | 0.28 | 0.28 | 97 | 1013.8 |
| 20260906043057 | 70 | 0 | 0.0 | 0.0 | 0.00 | 0.28 | 0.28 | 97 | 1014.0 |
| 20260906042527 | 70 | 0 | 0.0 | 0.0 | 0.00 | 0.28 | 0.28 | 97 | 1014.1 |
| 20260906042025 | 70 | 0 | 0.0 | 0.0 | 0.00 | 0.28 | 0.28 | 97 | 1014.1 |
| 20260906041544 | 70 | 0 | 0.0 | 0.0 | 0.00 | 0.28 | 0.28 | 97 | 1014.1 |
| 20260906041025 | 70 | 0 | 0.0 | 0.0 | 0.00 | 0.28 | 0.28 | 97 | 1014.2 |
| 20260906040527 | 70 | 0 | 0.0 | 0.0 | 0.00 | 0.28 | 0.28 | 97 | 1014.1 |
| 20260906040053 | 70 | 0 | 0.0 | 0.0 | 0.00 | 0.28 | 0.28 | 97 | 1014.1 |
| 20260906035525 | 70 | 0 | 0.0 | 0.0 | 0.00 | 0.28 | 0.28 | 97 | 1014.1 |
| 20260906035024 | 70 | 0 | 0.0 | 0.0 | 0.00 | 0.28 | 0.28 | 97 | 1014.0 |
| 20260906034548 | 70 | 0 | 0.0 | 0.0 | 0.00 | 0.28 | 0.28 | 97 | 1013.9 |
| 20260906034024 | 70 | 0 | 0.0 | 0.0 | 0.00 | 0.28 | 0.28 | 97 | 1013.9 |
| 20260906033527 | 70 | 0 | 0.0 | 0.0 | 0.00 | 0.28 | 0.28 | 97 | 1014.0 |
| 20260906033047 | 70 | 0 | 0.0 | 0.0 | 0.00 | 0.28 | 0.28 | 97 | 1014.1 |
| 20260906032523 | 70 | 0 | 0.0 | 0.0 | 0.00 | 0.28 | 0.28 | 97 | 1014.2 |
| 20260906032024 | 70 | 0 | 0.0 | 0.0 | 0.00 | 0.28 | 0.28 | 97 | 1014.3 |
| 20260906031556 | 70 | 0 | 0.0 | 0.0 | 0.00 | 0.28 | 0.28 | 97 | 1014.2 |
| 20260906031027 | 70 | 0 | 0.0 | 0.9 | 0.00 | 0.28 | 0.28 | 97 | 1014.2 |
| 20260906030532 | 71 | 0 | 0.0 | 1.7 | 0.00 | 0.28 | 0.28 | 97 | 1014.0 |
| 20260906025524 | 71 | 321 | 0.0 | 1.7 | 0.00 | 0.28 | 0.28 | 97 | 1013.8 |
| 20260906025029 | 71 | 0 | 0.0 | 1.7 | 0.00 | 0.28 | 0.28 | 97 | 1013.9 |
| 20260906024551 | 71 | 321 | 0.0 | 0.9 | 0.00 | 0.28 | 0.28 | 96 | 1013.8 |
| 20260906024025 | 71 | 0 | 0.0 | 1.7 | 0.00 | 0.28 | 0.28 | 96 | 1013.7 |
| 20260906023524 | 71 | 0 | 0.0 | 1.7 | 0.00 | 0.28 | 0.28 | 96 | 1013.9 |
| 20260906023103 | 71 | 56 | 0.9 | 1.7 | 0.00 | 0.28 | 0.28 | 96 | 1013.8 |
| 20260906022524 | 71 | 0 | 0.0 | 0.9 | 0.00 | 0.28 | 0.28 | 96 | 1013.7 |
| 20260906022025 | 71 | 0 | 0.0 | 0.0 | 0.00 | 0.28 | 0.28 | 96 | 1013.5 |
| 20260906021555 | 71 | 0 | 0.0 | 0.0 | 0.00 | 0.28 | 0.28 | 96 | 1013.4 |
| 20260906021026 | 71 | 0 | 0.0 | 0.0 | 0.00 | 0.28 | 0.28 | 95 | 1013.2 |
| 20260906020527 | 71 | 0 | 0.0 | 0.0 | 0.00 | 0.28 | 0.28 | 95 | 1013.3 |
| 20260906020059 | 71 | 0 | 0.0 | 0.0 | 0.00 | 0.28 | 0.28 | 95 | 1013.2 |
| 20260906015525 | 71 | 0 | 0.0 | 0.0 | 0.00 | 0.28 | 0.28 | 95 | 1013.4 |
| 20260906015024 | 71 | 0 | 0.0 | 0.0 | 0.00 | 0.28 | 0.28 | 95 | 1013.4 |
| 20260906014604 | 71 | 0 | 0.0 | 0.9 | 0.00 | 0.28 | 0.28 | 94 | 1013.4 |
| 20260906014024 | 72 | 0 | 0.0 | 0.9 | 0.00 | 0.28 | 0.28 | 95 | 1013.3 |
| 20260906013525 | 72 | 0 | 0.0 | 0.9 | 0.00 | 0.28 | 0.28 | 95 | 1013.3 |
| 20260906013047 | 72 | 0 | 0.0 | 1.7 | 0.00 | 0.28 | 0.28 | 95 | 1013.2 |
| 20260906012523 | 72 | 355 | 0.0 | 1.7 | 0.00 | 0.28 | 0.28 | 95 | 1012.9 |
| 20260906012027 | 72 | 0 | 0.0 | 1.7 | 0.00 | 0.28 | 0.28 | 94 | 1012.9 |
| 20260906011544 | 72 | 0 | 0.0 | 1.7 | 0.00 | 0.28 | 0.28 | 94 | 1012.9 |
| 20260906011029 | 72 | 0 | 0.0 | 1.7 | 0.00 | 0.28 | 0.28 | 94 | 1012.9 |
| 20260906010528 | 72 | 0 | 0.0 | 1.7 | 0.00 | 0.28 | 0.28 | 94 | 1013.0 |
| 20260906010047 | 72 | 355 | 0.0 | 0.0 | 0.00 | 0.28 | 0.28 | 94 | 1013.2 |
| 20260906005529 | 72 | 0 | 0.0 | 0.0 | 0.00 | 0.28 | 0.28 | 94 | 1013.2 |
| 20260906005025 | 72 | 0 | 0.0 | 1.7 | 0.00 | 0.28 | 0.28 | 94 | 1013.0 |
| 20260906004543 | 72 | 0 | 0.0 | 1.7 | 0.00 | 0.28 | 0.28 | 94 | 1013.1 |
| 20260906004031 | 72 | 355 | 0.9 | 1.7 | 0.00 | 0.28 | 0.28 | 94 | 1013.1 |
| 20260906003527 | 72 | 0 | 0.0 | 0.9 | 0.00 | 0.28 | 0.28 | 93 | 1012.9 |
| 20260906003057 | 73 | 0 | 0.0 | 1.7 | 0.00 | 0.28 | 0.28 | 93 | 1012.8 |
| 20260906002526 | 73 | 0 | 0.0 | 1.7 | 0.00 | 0.28 | 0.28 | 93 | 1012.8 |
| 20260906002030 | 73 | 355 | 0.9 | 1.7 | 0.00 | 0.28 | 0.28 | 94 | 1012.8 |
| 20260906001547 | 73 | 0 | 0.0 | 1.7 | 0.00 | 0.28 | 0.28 | 93 | 1012.8 |
| 20260906001025 | 73 | 0 | 0.0 | 1.7 | 0.00 | 0.28 | 0.28 | 93 | 1012.8 |
| 20260906000525 | 73 | 28 | 0.9 | 1.7 | 0.00 | 0.28 | 0.28 | 93 | 1012.8 |
| 20260906000044 | 73 | 28 | 0.0 | 1.7 | 0.00 | 0.28 | 0.28 | 93 | 1012.8 |
| 20260905235529 | 73 | 0 | 0.0 | 0.9 | 0.00 | 0.28 | 0.28 | 93 | 1012.8 |
| 20260905235029 | 73 | 28 | 0.0 | 0.9 | 0.00 | 0.28 | 0.28 | 92 | 1012.9 |
| 20260905234555 | 73 | 0 | 0.0 | 0.9 | 0.00 | 0.28 | 0.28 | 91 | 1013.0 |
| 20260905234027 | 73 | 0 | 0.0 | 0.9 | 0.00 | 0.28 | 0.28 | 90 | 1013.0 |
| 20260905233524 | 73 | 0 | 0.0 | 0.9 | 0.00 | 0.28 | 0.28 | 92 | 1013.0 |
| 20260905233048 | 74 | 0 | 0.0 | 0.9 | 0.00 | 0.28 | 0.28 | 93 | 1013.1 |
| 20260905232525 | 74 | 0 | 0.0 | 2.6 | 0.00 | 0.28 | 0.28 | 91 | 1013.1 |
| 20260905232024 | 74 | 336 | 0.0 | 2.6 | 0.00 | 0.28 | 0.28 | 94 | 1013.0 |
| 20260905231548 | 74 | 336 | 0.9 | 2.6 | 0.00 | 0.28 | 0.28 | 94 | 1013.0 |
| 20260905231024 | 74 | 336 | 0.0 | 1.7 | 0.00 | 0.28 | 0.28 | 95 | 1013.1 |
| 20260905230529 | 74 | 0 | 0.0 | 1.7 | 0.00 | 0.28 | 0.28 | 96 | 1012.9 |
| 20260905230057 | 74 | 0 | 0.0 | 1.7 | 0.00 | 0.28 | 0.28 | 95 | 1012.8 |
| 20260905225527 | 74 | 9 | 0.0 | 2.6 | 0.00 | 0.28 | 0.28 | 95 | 1012.6 |
| 20260905225027 | 74 | 0 | 0.0 | 2.6 | 0.00 | 0.28 | 0.28 | 96 | 1012.6 |
| 20260905224549 | 74 | 338 | 0.0 | 2.6 | 0.00 | 0.28 | 0.28 | 95 | 1012.5 |
| 20260905224030 | 74 | 67 | 0.9 | 1.7 | 0.00 | 0.28 | 0.28 | 95 | 1012.4 |
| 20260905223524 | 74 | 0 | 0.0 | 1.7 | 0.00 | 0.28 | 0.28 | 96 | 1012.5 |
| 20260905223051 | 73 | 161 | 0.0 | 1.7 | 0.00 | 0.28 | 0.28 | 95 | 1012.8 |
| 20260905222525 | 73 | 0 | 0.0 | 0.9 | 0.01 | 0.28 | 0.28 | 95 | 1012.7 |
| 20260905222027 | 73 | 0 | 0.0 | 0.9 | 0.01 | 0.28 | 0.28 | 94 | 1012.8 |
| 20260905221547 | 73 | 0 | 0.0 | 1.7 | 0.01 | 0.28 | 0.28 | 95 | 1012.9 |
| 20260905221025 | 73 | 0 | 0.0 | 3.5 | 0.01 | 0.28 | 0.28 | 95 | 1012.8 |
| 20260905220529 | 73 | 0 | 0.0 | 3.5 | 0.01 | 0.28 | 0.28 | 95 | 1012.8 |
| 20260905220055 | 73 | 178 | 0.9 | 2.6 | 0.02 | 0.28 | 0.28 | 95 | 1013.0 |
| 20260905215528 | 73 | 0 | 0.0 | 1.7 | 0.02 | 0.28 | 0.28 | 94 | 1012.9 |
| 20260905215029 | 73 | 0 | 0.0 | 1.7 | 0.02 | 0.28 | 0.28 | 94 | 1012.9 |
| 20260905214602 | 73 | 277 | 0.0 | 2.6 | 0.02 | 0.28 | 0.28 | 94 | 1013.1 |
| 20260905214029 | 73 | 0 | 0.9 | 2.6 | 0.02 | 0.28 | 0.28 | 93 | 1012.8 |
| 20260905213530 | 74 | 277 | 0.9 | 2.6 | 0.02 | 0.28 | 0.28 | 91 | 1012.9 |
| 20260905213048 | 74 | 0 | 0.0 | 1.7 | 0.03 | 0.28 | 0.28 | 92 | 1013.2 |
| 20260905212529 | 74 | 281 | 0.0 | 3.5 | 0.03 | 0.27 | 0.27 | 89 | 1013.5 |
| 20260905212034 | 75 | 0 | 0.0 | 3.5 | 0.05 | 0.27 | 0.27 | 86 | 1013.6 |
| 20260905211556 | 76 | 245 | 0.9 | 9.6 | 0.09 | 0.27 | 0.27 | 85 | 1013.8 |
| 20260905211028 | 76 | 5 | 1.7 | 9.6 | 0.21 | 0.27 | 0.27 | 86 | 1013.9 |
| 20260905210531 | 76 | 340 | 3.5 | 9.6 | 0.27 | 0.27 | 0.27 | 86 | 1014.1 |
| 20260905210049 | 77 | 346 | 1.7 | 5.2 | 0.26 | 0.26 | 0.26 | 93 | 1013.8 |
| 20260905205530 | 77 | 28 | 0.9 | 3.5 | 0.26 | 0.26 | 0.26 | 95 | 1013.6 |
| 20260905205030 | 76 | 329 | 0.0 | 2.6 | 0.26 | 0.26 | 0.26 | 95 | 1013.5 |
| 20260905204558 | 76 | 302 | 0.9 | 5.2 | 0.26 | 0.26 | 0.26 | 94 | 1013.5 |
| 20260905204028 | 76 | 192 | 0.9 | 5.2 | 0.26 | 0.26 | 0.26 | 93 | 1013.5 |
| 20260905203529 | 75 | 343 | 0.9 | 3.5 | 0.26 | 0.26 | 0.26 | 94 | 1013.4 |
| 20260905203050 | 75 | 189 | 1.7 | 3.5 | 0.25 | 0.25 | 0.25 | 92 | 1013.3 |
| 20260905202529 | 77 | 218 | 1.7 | 3.5 | 0.23 | 0.23 | 0.23 | 88 | 1013.6 |
| 20260905202029 | 80 | 300 | 0.9 | 4.3 | 0.22 | 0.22 | 0.22 | 82 | 1013.7 |
| 20260905201548 | 83 | 173 | 1.7 | 4.3 | 0.17 | 0.17 | 0.17 | 75 | 1013.6 |
| 20260905201028 | 86 | 137 | 1.7 | 6.1 | 0.04 | 0.04 | 0.04 | 65 | 1013.7 |
| 20260905200530 | 87 | 228 | 0.9 | 7.8 | 0.00 | 0.00 | 0.00 | 60 | 1013.4 |
| 20260905200052 | 88 | 232 | 2.6 | 13.0 | 0.00 | 0.00 | 0.00 | 57 | 1013.2 |
| 20260905195528 | 89 | 235 | 2.6 | 13.0 | 0.00 | 0.00 | 0.00 | 57 | 1013.2 |
| 20260905195028 | 90 | 215 | 3.5 | 13.0 | 0.00 | 0.00 | 0.00 | 57 | 1012.9 |
| 20260905194557 | 91 | 250 | 3.5 | 8.7 | 0.00 | 0.00 | 0.00 | 59 | 1013.0 |
| 20260905194027 | 91 | 247 | 0.9 | 1.7 | 0.00 | 0.00 | 0.00 | 60 | 1012.9 |
| 20260905193529 | 92 | 0 | 0.0 | 0.9 | 0.00 | 0.00 | 0.00 | 58 | 1013.0 |
| 20260905193047 | 92 | 0 | 0.0 | 0.9 | 0.00 | 0.00 | 0.00 | 55 | 1013.1 |
| 20260905192529 | 93 | 0 | 0.0 | 1.7 | 0.00 | 0.00 | 0.00 | 56 | 1013.1 |
| 20260905192033 | 93 | 0 | 0.0 | 2.6 | 0.00 | 0.00 | 0.00 | 54 | 1013.0 |
| 20260905191548 | 94 | 0 | 0.9 | 3.5 | 0.00 | 0.00 | 0.00 | 52 | 1013.0 |
| 20260905191028 | 94 | 348 | 0.9 | 4.3 | 0.00 | 0.00 | 0.00 | 53 | 1013.1 |
| 20260905190529 | 95 | 350 | 0.9 | 4.3 | 0.00 | 0.00 | 0.00 | 53 | 1013.2 |
| 20260905190053 | 96 | 11 | 0.9 | 3.5 | 0.00 | 0.00 | 0.00 | 52 | 1013.3 |
| 20260905185528 | 96 | 0 | 0.9 | 3.5 | 0.00 | 0.00 | 0.00 | 50 | 1013.3 |
| 20260905185029 | 96 | 0 | 0.9 | 3.5 | 0.00 | 0.00 | 0.00 | 50 | 1013.3 |
| 20260905184607 | 95 | 164 | 0.9 | 3.5 | 0.00 | 0.00 | 0.00 | 52 | 1013.2 |
| 20260905184035 | 95 | 75 | 0.9 | 3.5 | 0.00 | 0.00 | 0.00 | 50 | 1013.2 |
| 20260905183531 | 96 | 24 | 0.9 | 3.5 | 0.00 | 0.00 | 0.00 | 51 | 1013.3 |
| 20260905183101 | 96 | 302 | 0.9 | 3.5 | 0.00 | 0.00 | 0.00 | 51 | 1013.3 |
| 20260905182528 | 95 | 315 | 0.9 | 4.3 | 0.00 | 0.00 | 0.00 | 51 | 1013.4 |
| 20260905182029 | 96 | 5 | 1.7 | 4.3 | 0.00 | 0.00 | 0.00 | 50 | 1013.5 |
| 20260905181555 | 96 | 15 | 0.9 | 3.5 | 0.00 | 0.00 | 0.00 | 51 | 1013.7 |
| 20260905181028 | 95 | 132 | 0.9 | 3.5 | 0.00 | 0.00 | 0.00 | 49 | 1013.7 |
| 20260905180528 | 96 | 342 | 0.9 | 5.2 | 0.00 | 0.00 | 0.00 | 52 | 1013.8 |
| 20260905180054 | 96 | 57 | 0.9 | 5.2 | 0.00 | 0.00 | 0.00 | 50 | 1013.8 |
| 20260905175527 | 96 | 325 | 1.7 | 5.2 | 0.00 | 0.00 | 0.00 | 53 | 1013.9 |
| 20260905175028 | 95 | 275 | 1.7 | 5.2 | 0.00 | 0.00 | 0.00 | 51 | 1013.9 |
| 20260905174554 | 95 | 63 | 0.9 | 3.5 | 0.00 | 0.00 | 0.00 | 54 | 1014.0 |
| 20260905174028 | 95 | 327 | 0.9 | 4.3 | 0.00 | 0.00 | 0.00 | 52 | 1014.0 |
| 20260905173528 | 95 | 323 | 0.9 | 4.3 | 0.00 | 0.00 | 0.00 | 53 | 1014.0 |
| 20260905173108 | 94 | 51 | 0.9 | 5.2 | 0.00 | 0.00 | 0.00 | 57 | 1014.1 |
| 20260905172530 | 94 | 32 | 0.9 | 5.2 | 0.00 | 0.00 | 0.00 | 55 | 1014.2 |
| 20260905172029 | 94 | 78 | 1.7 | 4.3 | 0.00 | 0.00 | 0.00 | 55 | 1014.2 |
| 20260905171555 | 94 | 118 | 0.9 | 5.2 | 0.00 | 0.00 | 0.00 | 55 | 1014.2 |
| 20260905171028 | 94 | 330 | 1.7 | 6.1 | 0.00 | 0.00 | 0.00 | 59 | 1014.3 |
| 20260905170528 | 94 | 41 | 1.7 | 6.1 | 0.00 | 0.00 | 0.00 | 56 | 1014.3 |
| 20260905170053 | 94 | 69 | 0.9 | 4.3 | 0.00 | 0.00 | 0.00 | 60 | 1014.4 |
| 20260905165529 | 93 | 341 | 0.9 | 4.3 | 0.00 | 0.00 | 0.00 | 62 | 1014.5 |
| 20260905165028 | 93 | 65 | 0.9 | 4.3 | 0.00 | 0.00 | 0.00 | 61 | 1014.5 |
| 20260905164548 | 92 | 125 | 1.7 | 3.5 | 0.00 | 0.00 | 0.00 | 60 | 1014.6 |
| 20260905164028 | 92 | 45 | 0.9 | 2.6 | 0.00 | 0.00 | 0.00 | 62 | 1014.7 |
| 20260905163528 | 92 | 168 | 0.9 | 2.6 | 0.00 | 0.00 | 0.00 | 62 | 1014.8 |
| 20260905163052 | 92 | 47 | 0.9 | 3.5 | 0.00 | 0.00 | 0.00 | 67 | 1014.9 |
| 20260905162529 | 92 | 59 | 0.9 | 3.5 | 0.00 | 0.00 | 0.00 | 66 | 1014.9 |
| 20260905162029 | 91 | 198 | 0.9 | 3.5 | 0.00 | 0.00 | 0.00 | 65 | 1015.0 |
| 20260905161544 | 91 | 0 | 0.0 | 2.6 | 0.00 | 0.00 | 0.00 | 66 | 1015.1 |
| 20260905161028 | 90 | 333 | 0.9 | 2.6 | 0.00 | 0.00 | 0.00 | 65 | 1015.1 |
| 20260905160533 | 90 | 345 | 0.9 | 3.5 | 0.00 | 0.00 | 0.00 | 67 | 1015.1 |
| 20260905160057 | 89 | 77 | 0.0 | 3.5 | 0.00 | 0.00 | 0.00 | 69 | 1015.2 |
| 20260905155525 | 89 | 169 | 1.7 | 3.5 | 0.00 | 0.00 | 0.00 | 68 | 1015.2 |
| 20260905155025 | 89 | 76 | 0.9 | 2.6 | 0.00 | 0.00 | 0.00 | 69 | 1015.3 |
| 20260905154550 | 88 | 0 | 0.0 | 2.6 | 0.00 | 0.00 | 0.00 | 69 | 1015.2 |
| 20260905154024 | 88 | 61 | 0.9 | 3.5 | 0.00 | 0.00 | 0.00 | 70 | 1015.3 |
| 20260905153524 | 88 | 0 | 0.9 | 3.5 | 0.00 | 0.00 | 0.00 | 70 | 1015.3 |
| 20260905153046 | 88 | 29 | 0.9 | 3.5 | 0.00 | 0.00 | 0.00 | 71 | 1015.4 |
| 20260905152525 | 87 | 90 | 0.9 | 3.5 | 0.00 | 0.00 | 0.00 | 72 | 1015.5 |
| 20260905152028 | 87 | 96 | 0.9 | 4.3 | 0.00 | 0.00 | 0.00 | 72 | 1015.4 |
| 20260905151549 | 87 | 87 | 1.7 | 4.3 | 0.00 | 0.00 | 0.00 | 74 | 1015.5 |
| 20260905151027 | 86 | 102 | 0.0 | 1.7 | 0.00 | 0.00 | 0.00 | 74 | 1015.6 |
| 20260905150525 | 86 | 0 | 0.0 | 2.6 | 0.00 | 0.00 | 0.00 | 75 | 1015.5 |
| 20260905150049 | 86 | 71 | 0.0 | 2.6 | 0.00 | 0.00 | 0.00 | 73 | 1015.6 |
| 20260905145527 | 85 | 130 | 0.0 | 3.5 | 0.00 | 0.00 | 0.00 | 74 | 1015.5 |
| 20260905145027 | 85 | 0 | 0.0 | 3.5 | 0.00 | 0.00 | 0.00 | 75 | 1015.6 |
| 20260905144550 | 85 | 347 | 0.0 | 1.7 | 0.00 | 0.00 | 0.00 | 76 | 1015.5 |
| 20260905144026 | 84 | 0 | 0.0 | 2.6 | 0.00 | 0.00 | 0.00 | 76 | 1015.6 |
| 20260905143525 | 84 | 32 | 0.0 | 2.6 | 0.00 | 0.00 | 0.00 | 78 | 1015.6 |
| 20260905143049 | 83 | 0 | 0.0 | 2.6 | 0.00 | 0.00 | 0.00 | 79 | 1015.5 |
| 20260905142528 | 83 | 225 | 0.0 | 1.7 | 0.00 | 0.00 | 0.00 | 79 | 1015.7 |
| 20260905142029 | 82 | 0 | 0.0 | 2.6 | 0.00 | 0.00 | 0.00 | 79 | 1015.7 |
| 20260905141603 | 81 | 0 | 0.0 | 2.6 | 0.00 | 0.00 | 0.00 | 80 | 1015.8 |
| 20260905141027 | 80 | 0 | 0.9 | 2.6 | 0.00 | 0.00 | 0.00 | 81 | 1015.8 |
| 20260905140527 | 80 | 317 | 0.9 | 3.5 | 0.00 | 0.00 | 0.00 | 83 | 1015.8 |
| 20260905135528 | 78 | 54 | 0.9 | 3.5 | 0.00 | 0.00 | 0.00 | 86 | 1016.0 |
| 20260905135026 | 77 | 0 | 0.9 | 2.6 | 0.00 | 0.00 | 0.00 | 87 | 1016.0 |
| 20260905134605 | 76 | 44 | 0.0 | 2.6 | 0.00 | 0.00 | 0.00 | 89 | 1016.0 |
| 20260905134027 | 76 | 0 | 0.9 | 2.6 | 0.00 | 0.00 | 0.00 | 88 | 1016.0 |
| 20260905133527 | 75 | 43 | 0.0 | 1.7 | 0.00 | 0.00 | 0.00 | 90 | 1016.0 |
| 20260905133055 | 75 | 0 | 0.0 | 1.7 | 0.00 | 0.00 | 0.00 | 91 | 1016.1 |
| 20260905132528 | 75 | 0 | 0.0 | 1.7 | 0.00 | 0.00 | 0.00 | 92 | 1016.0 |
| 20260905132025 | 74 | 47 | 0.0 | 0.0 | 0.00 | 0.00 | 0.00 | 93 | 1016.2 |
| 20260905131555 | 74 | 0 | 0.0 | 0.9 | 0.00 | 0.00 | 0.00 | 93 | 1016.2 |
| 20260905131029 | 74 | 0 | 0.0 | 1.7 | 0.00 | 0.00 | 0.00 | 93 | 1016.2 |
| 20260905130525 | 74 | 61 | 0.0 | 1.7 | 0.00 | 0.00 | 0.00 | 94 | 1016.2 |
| 20260905130058 | 73 | 0 | 0.0 | 1.7 | 0.00 | 0.00 | 0.00 | 94 | 1016.2 |
| 20260905125618 | 73 | 0 | 0.0 | 0.0 | 0.00 | 0.00 | 0.00 | 94 | 1016.2 |
| 20260905125029 | 73 | 0 | 0.0 | 0.9 | 0.00 | 0.00 | 0.00 | 94 | 1016.2 |
| 20260905124554 | 73 | 0 | 0.0 | 0.9 | 0.00 | 0.00 | 0.00 | 95 | 1016.1 |
| 20260905124033 | 72 | 0 | 0.0 | 0.9 | 0.00 | 0.00 | 0.00 | 96 | 1016.1 |
| 20260905123527 | 72 | 0 | 0.0 | 0.0 | 0.00 | 0.00 | 0.00 | 96 | 1016.0 |
| 20260905123055 | 72 | 0 | 0.0 | 0.0 | 0.00 | 0.00 | 0.00 | 96 | 1016.0 |
| 20260905122528 | 71 | 0 | 0.0 | 0.0 | 0.00 | 0.00 | 0.00 | 97 | 1015.9 |